TimeEDT,TemperatureF,Dew PointF,Humidity,Sea Level PressureIn,VisibilityMPH,Wind Direction,Wind SpeedMPH,Gust SpeedMPH,PrecipitationIn,Events,Conditions,WindDirDegrees,DateUTC
12:19 AM,37.4,32.0,81,29.68,10.0,WSW,18.4,25.3,N/A,,Overcast,250,2013-03-12 04:19:00
12:42 AM,37.4,32.0,81,29.69,9.0,West,17.3,25.3,0.00,Rain,Light Rain,260,2013-03-12 04:42:00
12:53 AM,36.0,32.0,86,29.71,10.0,West,18.4,24.2,0.00,,Overcast,260,2013-03-12 04:53:00
1:40 AM,35.6,30.2,81,29.70,10.0,West,13.8,25.3,N/A,,Overcast,260,2013-03-12 05:40:00
1:53 AM,36.0,30.9,82,29.72,9.0,West,17.3,25.3,0.00,Snow,Light Snow,260,2013-03-12 05:53:00
2:02 AM,35.6,30.2,81,29.71,7.0,West,16.1,21.9,0.00,Snow,Light Snow,260,2013-03-12 06:02:00
2:25 AM,35.6,30.2,81,29.72,5.0,West,16.1,20.7,0.01,Snow,Light Snow,270,2013-03-12 06:25:00
2:51 AM,35.6,30.2,81,29.73,10.0,West,16.1,-,0.01,,Overcast,270,2013-03-12 06:51:00
2:53 AM,36.0,28.9,76,29.75,10.0,West,13.8,-,0.01,,Overcast,280,2013-03-12 06:53:00
3:34 AM,35.6,28.4,75,29.75,2.5,West,10.4,20.7,0.00,Snow,Light Snow,280,2013-03-12 07:34:00
3:43 AM,35.6,28.4,75,29.76,8.0,West,11.5,-,0.00,,Overcast,270,2013-03-12 07:43:00
3:53 AM,35.1,28.0,76,29.77,10.0,West,15.0,24.2,0.00,,Overcast,270,2013-03-12 07:53:00
4:49 AM,33.8,28.4,81,29.75,2.5,West,11.5,-,0.00,Snow,Light Snow,260,2013-03-12 08:49:00
4:53 AM,34.0,28.9,82,29.78,1.8,West,11.5,18.4,0.00,Snow,Light Snow,270,2013-03-12 08:53:00
5:01 AM,33.8,28.4,81,29.76,1.5,West,12.7,21.9,0.00,Snow,Light Snow,270,2013-03-12 09:01:00
5:04 AM,33.8,28.4,81,29.76,2.0,West,12.7,-,0.00,Snow,Light Snow,270,2013-03-12 09:04:00
5:08 AM,33.8,28.4,81,29.76,4.0,West,13.8,-,0.00,Snow,Light Snow,270,2013-03-12 09:08:00
5:30 AM,33.8,28.4,81,29.77,2.0,West,15.0,25.3,0.00,Snow,Light Snow,280,2013-03-12 09:30:00
5:33 AM,33.8,28.4,81,29.77,1.8,West,12.7,25.3,0.00,Snow,Light Snow,280,2013-03-12 09:33:00
5:39 AM,33.8,28.4,81,29.77,3.0,West,17.3,25.3,0.00,Snow,Light Snow,270,2013-03-12 09:39:00
5:53 AM,34.0,27.0,75,29.80,10.0,West,15.0,26.5,0.00,,Overcast,280,2013-03-12 09:53:00
6:33 AM,33.8,24.8,70,29.80,10.0,West,12.7,21.9,N/A,,Overcast,270,2013-03-12 10:33:00
6:53 AM,34.0,25.0,70,29.82,10.0,WNW,9.2,18.4,N/A,,Overcast,290,2013-03-12 10:53:00
7:22 AM,33.8,24.8,70,29.81,10.0,West,8.1,-,N/A,,Overcast,280,2013-03-12 11:22:00
7:53 AM,34.0,25.0,70,29.83,10.0,West,6.9,-,N/A,,Overcast,280,2013-03-12 11:53:00
8:41 AM,33.8,24.8,70,29.82,9.0,WNW,13.8,20.7,0.00,,Overcast,290,2013-03-12 12:41:00
8:53 AM,34.0,23.0,64,29.85,10.0,West,15.0,21.9,0.00,,Overcast,280,2013-03-12 12:53:00
9:53 AM,33.1,23.0,66,29.87,10.0,West,11.5,20.7,N/A,,Overcast,270,2013-03-12 13:53:00
10:29 AM,33.8,26.6,75,29.85,5.0,West,11.5,-,0.00,Snow,Light Snow,280,2013-03-12 14:29:00
10:53 AM,33.1,25.0,72,29.88,9.0,West,9.2,-,0.00,Snow,Light Snow,270,2013-03-12 14:53:00
11:53 AM,34.0,25.0,70,29.87,10.0,West,10.4,19.6,0.00,,Overcast,270,2013-03-12 15:53:00
12:53 PM,34.0,25.0,70,29.88,10.0,West,15.0,-,N/A,,Overcast,260,2013-03-12 16:53:00
1:42 PM,33.8,26.6,75,29.86,9.0,West,16.1,20.7,0.00,Snow,Light Snow,260,2013-03-12 17:42:00
1:53 PM,34.0,25.0,70,29.88,9.0,WSW,18.4,25.3,0.00,,Overcast,250,2013-03-12 17:53:00
2:44 PM,33.8,24.8,70,29.86,10.0,WSW,18.4,26.5,N/A,,Overcast,250,2013-03-12 18:44:00
2:53 PM,34.0,24.1,67,29.88,10.0,WSW,17.3,-,N/A,,Overcast,250,2013-03-12 18:53:00
3:01 PM,33.8,24.8,70,29.86,10.0,WSW,16.1,24.2,N/A,,Overcast,250,2013-03-12 19:01:00
3:40 PM,33.8,23.0,65,29.87,10.0,WSW,18.4,24.2,N/A,,Overcast,240,2013-03-12 19:40:00
3:53 PM,34.0,23.0,64,29.89,10.0,WSW,17.3,-,N/A,,Overcast,250,2013-03-12 19:53:00
4:53 PM,33.1,23.0,66,29.90,4.0,West,17.3,24.2,0.00,Snow,Light Snow,270,2013-03-12 20:53:00
4:59 PM,33.8,24.8,70,29.88,2.5,West,18.4,24.2,0.00,Snow,Light Snow,260,2013-03-12 20:59:00
5:18 PM,33.8,24.8,70,29.88,6.0,WSW,11.5,-,0.00,Snow,Light Snow,250,2013-03-12 21:18:00
5:36 PM,35.6,23.0,60,29.88,10.0,WSW,18.4,23.0,0.00,,Overcast,250,2013-03-12 21:36:00
5:53 PM,33.1,24.1,70,29.90,3.0,West,13.8,23.0,0.00,Snow,Light Snow,270,2013-03-12 21:53:00
5:55 PM,33.8,24.8,70,29.88,2.5,West,15.0,-,0.00,Snow,Light Snow,270,2013-03-12 21:55:00
6:01 PM,33.8,24.8,70,29.88,1.8,West,12.7,20.7,0.00,Snow,Light Snow,270,2013-03-12 22:01:00
6:07 PM,33.8,24.8,70,29.88,3.0,West,13.8,20.7,0.00,Snow,Light Snow,260,2013-03-12 22:07:00
6:15 PM,33.8,24.8,70,29.88,5.0,West,15.0,23.0,0.00,Snow,Light Snow,260,2013-03-12 22:15:00
6:25 PM,33.8,24.8,70,29.88,7.0,West,11.5,24.2,0.00,Snow,Light Snow,260,2013-03-12 22:25:00
6:53 PM,34.0,24.1,67,29.90,10.0,West,13.8,-,0.00,,Overcast,260,2013-03-12 22:53:00
7:53 PM,34.0,25.0,70,29.90,10.0,WSW,10.4,-,N/A,,Overcast,250,2013-03-12 23:53:00
8:05 PM,33.8,26.6,75,29.88,9.0,WSW,9.2,-,N/A,,Overcast,250,2013-03-13 00:05:00
8:50 PM,33.8,28.4,81,29.88,6.0,WSW,5.8,-,0.00,Snow,Light Snow,240,2013-03-13 00:50:00
8:53 PM,34.0,28.0,79,29.91,5.0,West,6.9,-,0.00,Snow,Light Snow,260,2013-03-13 00:53:00
8:58 PM,33.8,28.4,81,29.89,1.5,WNW,5.8,-,0.00,Snow,Light Snow,290,2013-03-13 00:58:00
9:01 PM,33.8,28.4,81,29.88,0.8,WNW,6.9,-,0.00,Snow,Light Snow,300,2013-03-13 01:01:00
9:08 PM,32.0,28.4,87,29.88,0.5,Calm,Calm,-,0.00,Fog-Snow,Snow,0,2013-03-13 01:08:00
9:16 PM,32.0,28.4,87,29.88,1.0,Calm,Calm,-,0.00,Snow,Light Snow,0,2013-03-13 01:16:00
9:25 PM,32.0,28.4,87,29.88,1.8,Calm,Calm,-,0.00,Snow,Light Snow,0,2013-03-13 01:25:00
9:30 PM,33.8,28.4,81,29.89,2.0,Variable,3.5,-,0.00,Snow,Light Snow,0,2013-03-13 01:30:00
9:34 PM,33.8,28.4,81,29.89,1.8,WNW,3.5,-,0.00,Snow,Light Snow,300,2013-03-13 01:34:00
9:38 PM,33.8,28.4,81,29.89,1.2,Calm,Calm,-,0.00,Snow,Light Snow,0,2013-03-13 01:38:00
9:45 PM,32.0,28.4,87,29.89,1.0,NW,5.8,-,0.00,Snow,Light Snow,310,2013-03-13 01:45:00
9:53 PM,32.0,27.0,82,29.91,2.0,NW,4.6,-,0.00,Snow,Light Snow,320,2013-03-13 01:53:00
10:11 PM,32.0,26.6,80,29.89,1.5,NW,5.8,-,0.00,Snow,Light Snow,310,2013-03-13 02:11:00
10:20 PM,32.0,26.6,80,29.89,1.2,NW,4.6,-,0.00,Snow,Light Snow,310,2013-03-13 02:20:00
10:32 PM,32.0,26.6,80,29.89,1.5,NW,5.8,-,0.00,Snow,Light Snow,320,2013-03-13 02:32:00
10:36 PM,32.0,26.6,80,29.89,2.0,NW,5.8,-,0.00,Snow,Light Snow,320,2013-03-13 02:36:00
10:42 PM,32.0,26.6,80,29.89,4.0,NW,4.6,-,0.00,Snow,Light Snow,310,2013-03-13 02:42:00
10:53 PM,32.0,26.1,79,29.91,5.0,NW,5.8,-,0.00,Snow,Light Snow,310,2013-03-13 02:53:00
11:05 PM,32.0,26.6,80,29.89,4.0,NW,6.9,-,0.00,Snow,Light Snow,320,2013-03-13 03:05:00
11:49 PM,32.0,23.0,69,29.90,9.0,NW,8.1,-,0.00,,Overcast,310,2013-03-13 03:49:00
11:53 PM,32.0,21.9,66,29.92,10.0,NW,6.9,-,0.00,,Overcast,310,2013-03-13 03:53:00